Regional Weather Roundup
Issued by NWS Sioux Falls, SD

Home | Current Version | Previous Version | Text Only | Print | Product List | Glossary On
Versions: 1 2 3 4 5 6 7 8 9 10 11 12 13 14 15 16 17 18 19 20 21 22 23 24 25 26 27 28 29 30 31 32 33 34 35 36 37 38 39 40 41 42 43 44 45 46 47 48 49 50
535
ASUS43 KFSD 261110
RWRFSD

WEATHER ROUNDUP FOR SE SOUTH DAKOTA/SW MINNESOTA/NW IOWA
NATIONAL WEATHER SERVICE SIOUX FALLS SD
500 AM CST SUN FEB 26 2017

NOTE: "FAIR" INDICATES FEW OR NO CLOUDS BELOW 12,000 FEET WITH NO
SIGNIFICANT WEATHER AND OR OBSTRUCTIONS TO VISIBILITY.


SDZ038>040-050-052>070-261200-
SOUTHEAST SOUTH DAKOTA

CITY           SKY/WX    TMP DP  RH WIND       PRES   REMARKS
BROOKINGS      PTCLDY    18  16  92 SW5       29.71R WCI  11
CHAMBERLAIN    CLEAR     22  18  83 W9        29.77R WCI  12
HURON          CLEAR     23  20  88 W9        29.74R WCI  13
MADISON        CLOUDY    23  23 100 W12       29.72R WCI  12
MITCHELL       CLEAR     24  18  77 W12       29.77R WCI  13
SIOUX FALLS    PTCLDY    18  15  88 SW5       29.76R WCI  11
WINNER         FAIR      20  12  71 W6        29.77R WCI  12
YANKTON        CLEAR     19  14  79 SW8       29.79R WCI   9
$$

MNZ071-072-080-081-089-090-097-098-261200-
SOUTHWEST MINNESOTA

CITY           SKY/WX    TMP DP  RH WIND       PRES   REMARKS
FAIRMONT       PTCLDY    21  16  81 SW16      29.76S WCI   7
JACKSON        PTCLDY    21  18  86 SW9       29.75S WCI  11
LUVERNE        CLEAR     18  14  86 SW3       29.76R
MARSHALL       MOCLDY    24  20  84 SW10      29.72  WCI  14
MONTEVIDEO     MOCLDY    25  21  86 W3        29.72F
PIPESTONE      CLOUDY    21  16  79 SW6       29.72S WCI  14
REDWOOD FALLS  PTCLDY    23  18  81 SW6       29.72S WCI  16
TRACY          MOCLDY    24  20  87 SW13      29.72S WCI  12
WINDOM         CLEAR     19  18  93 SW9       29.74R WCI   9
WORTHINGTON    CLEAR     19  16  88 SW9       29.74S WCI   8
$$

IAZ001>003-012>014-020>022-031-032-NEZ013-014-SDZ071-261200-
NORTHWEST IOWA

CITY           SKY/WX    TMP DP  RH WIND       PRES   REMARKS
CHEROKEE       CLEAR     19  18  96 S9        29.79F WCI   9
DENISON        CLEAR     23  21  93 SW6       29.81S WCI  16
ESTHERVILLE    CLEAR     18  15  88 SW14      29.75S WCI   4
LE MARS        CLEAR     18  16  93 S7        29.81R WCI   8
SHELDON        CLEAR     18  18 100 SW6       29.75S WCI   9
SIOUX CITY     CLEAR     20  13  74 W7        29.82S WCI  11
SPENCER        CLEAR     15  11  83 CALM      29.77S
STORM LAKE     CLEAR     19  18  93 SW15      29.79S WCI   5
$$

ABBREVIATIONS USED IN REMARKS
   TC - TEMPERATURE IN CELSIUS
  WCI - WIND CHILL INDEX
   HX - HEAT INDEX
  VSB - VISIBILITY





USA.gov is the U.S. government's official web portal to all federal, state and local government web resources and services.